Powrót do katalogu

SLS DEB

AktywnyUNKNOWN
NORAD 55907·DEBRIS·🇺🇸 United States

Wystrzelony Nov 16, 2022 z Cape Canaveral Space Force Station

Loading…

Następne Przeloty (najbliższe 24 godziny)

TLE

ŚwieżeSource: Space-Track

Epoka: Sep 14, 2026, 03:44 UTC

1 55907U 22156G   26257.15581891  .00058855  00000-0  57786-2 0  9998
2 55907  30.5545 195.8416 1306295 290.4125  56.1094 12.65637906158906

Śledź SLS DEB w czasie rzeczywistym z AllMySat

Download on the App Store